Regional Weather Roundup
Issued by NWS

Home | Current Version | Previous Version | Graphics & Text | Print | Product List | Glossary On
Versions: 1 2 3 4 5 6 7 8 9 10 11 12 13 14 15 16 17 18 19 20 21 22 23 24 25 26 27 28 29 30 31 32 33 34 35 36 37 38 39 40 41 42 43 44 45 46 47 48 49
000
ASUS45 KCYS 291210
RWRWY

WYOMING REGIONAL WEATHER ROUNDUP
NATIONAL WEATHER SERVICE CHEYENNE WY
600 AM MDT SAT AUG 29 2015

NOTE:  "FAIR" INDICATES FEW OR NO CLOUDS BELOW 12,000 FEET
WITH NO SIGNIFICANT WEATHER AND/OR OBSTRUCTIONS TO VISIBILITY.

WYZ001-291300-
YELLOWSTONE NATIONAL PARK

CITY           SKY/WX    TMP DP  RH WIND       PRES   REMARKS
LK YELLOWSTONE   N/A     41  37  86 CALM      30.35S
6HR MIN TEMP:  40; 6HR MAX TEMP:  44;

W YELLOWSTONE  NOT AVBL

$$
WYZ002>013-054>058-071-098>099-291300-
NORTHERN WYOMING

CITY           SKY/WX    TMP DP  RH WIND       PRES   REMARKS
JACKSON        FAIR      45  41  87 N3        30.27S
CODY           FAIR      63  37  39 SW6       30.11R
GREYBULL       FAIR      55  37  50 N3        30.05R
6HR MIN TEMP:  54; 6HR MAX TEMP:  70;

WORLAND        FAIR      53  43  68 CALM      30.07R
6HR MIN TEMP:  51; 6HR MAX TEMP:  63;

SHERIDAN       FAIR      51  43  74 CALM      30.03S
6HR MIN TEMP:  50; 6HR MAX TEMP:  61;

BUFFALO        FAIR      75  32  20 CALM      30.11F
6HR MIN TEMP:  65; 6HR MAX TEMP:  76;

GILLETTE       FAIR      61  41  47 CALM      30.09S
6HR MIN TEMP:  57; 6HR MAX TEMP:  71;

HULETT         FAIR      64  43  45 CALM      30.10S
NEWCASTLE      FAIR      64  37  36 CALM      30.14R

$$
WYZ014>020-022>026-101>103-291300-
CENTRAL WYOMING

CITY           SKY/WX    TMP DP  RH WIND       PRES   REMARKS
BIG PINEY      FAIR      43  32  65 CALM      30.32F
6HR MIN TEMP:  40; 6HR MAX TEMP:  54;

PINEDALE       FAIR      39  37  93 NW8       30.34S WCI  34
DUBOIS         FAIR      45  34  65 W10       30.31S
LANDER         FAIR      60  34  37 N3        30.17F
6HR MIN TEMP:  57; 6HR MAX TEMP:  67;

RIVERTON       FAIR      53  42  66 N8        30.18F
6HR MIN TEMP:  53; 6HR MAX TEMP:  62;

CASPER         FAIR      59  38  45 S9        30.18S
6HR MIN TEMP:  50; 6HR MAX TEMP:  61;

DOUGLAS        FAIR      50  39  66 CALM      30.18S
6HR MIN TEMP:  50; 6HR MAX TEMP:  63;


$$
WYZ021-027>030-104>119-291300-
SOUTHERN WYOMING

CITY           SKY/WX    TMP DP  RH WIND       PRES   REMARKS
EVANSTON       FAIR      61  33  35 SE5       30.30R
6HR MIN TEMP:  58; 6HR MAX TEMP:  63;

KEMMERER       FAIR      46  34  61 N12       30.32S
FORT BRIDGER   SUNNY     57  34  41 CALM      30.33R
ROCK SPRINGS   FAIR      57  31  37 SE7       30.29S
6HR MIN TEMP:  56; 6HR MAX TEMP:  67;

DIXON          FAIR      47  38  70 E6        30.34S
RAWLINS        FAIR      45  38  76 NE3       30.32S
6HR MIN TEMP:  44; 6HR MAX TEMP:  54;

SARATOGA       FAIR      50  41  71 CALM      30.35S
LARAMIE        FAIR      45  39  79 S8        30.35S
6HR MIN TEMP:  43; 6HR MAX TEMP:  55;

CHEYENNE       FAIR      53  44  71 W6        30.28F
6HR MIN TEMP:  53; 6HR MAX TEMP:  56;

TORRINGTON     FAIR      53  45  74 CALM      30.15S
6HR MIN TEMP:  53; 6HR MAX TEMP:  64;

PINE BLUFFS    FAIR      46  41  81 CALM      30.25S

$$



USA.gov is the U.S. government's official web portal to all federal, state and local government web resources and services.